This is the latest recevied weather packets stored in our database for station/object KE5VT. If no packets are shown the sender has not sent any weather packets the latest 10 day(s).
| Time | Temp. | Humidity | Pressure | Rain* | Wind** | Luminosity | Snow |
|---|---|---|---|---|---|---|---|
| 1777595149 | 20° C | 69% | 1006.2 hPa | 0 mm | - | 0 W/m² | - |
| 1777594845 | 20° C | 69% | 1006.2 hPa | 0 mm | - | 0 W/m² | - |
| 1777594542 | 20° C | 70% | 1006.1 hPa | 0 mm | - | 1 W/m² | - |
| 1777594238 | 20.56° C | 69% | 1006.2 hPa | 0 mm | - | 2 W/m² | - |
| 1777593934 | 20.56° C | 68% | 1006.1 hPa | 0 mm | - | 2 W/m² | - |
| 1777593631 | 20.56° C | 68% | 1006.2 hPa | 0 mm | - | 5 W/m² | - |
| 1777593327 | 20.56° C | 66% | 1006.3 hPa | 0 mm | - | 7 W/m² | - |
| 1777593021 | 21.11° C | 65% | 1006 hPa | 0 mm | - | 7 W/m² | - |
| 1777592715 | 21.11° C | 65% | 1006.3 hPa | 0 mm | - | 8 W/m² | - |
| 1777592411 | 21.11° C | 64% | 1006 hPa | 0 mm | - | 13 W/m² | - |
| 1777592106 | 21.11° C | 65% | 1006 hPa | 0 mm | - | 19 W/m² | - |
| 1777591804 | 21.11° C | 64% | 1006 hPa | 0 mm | - | 28 W/m² | - |
| 1777591500 | 21.67° C | 64% | 1006 hPa | 0 mm | - | 22 W/m² | - |
| 1777591196 | 21.67° C | 63% | 1006 hPa | 0 mm | - | 16 W/m² | - |
| 1777590890 | 21.67° C | 62% | 1005.8 hPa | 0 mm | - | 25 W/m² | - |
| 1777590587 | 21.67° C | 61% | 1005.8 hPa | 0 mm | - | 39 W/m² | - |
| 1777590283 | 21.67° C | 61% | 1005.7 hPa | 0 mm | - | 47 W/m² | - |
| 1777589981 | 21.67° C | 61% | 1005.7 hPa | 0 mm | - | 49 W/m² | - |
| 1777589677 | 22.22° C | 61% | 1005.8 hPa | 0 mm | - | 54 W/m² | - |
| 1777589375 | 22.22° C | 62% | 1005.8 hPa | 0 mm | - | 54 W/m² | - |
| 1777589071 | 22.78° C | 60% | 1005.7 hPa | 0 mm | - | 65 W/m² | - |
| 1777588767 | 23.33° C | 62% | 1005.9 hPa | 0 mm | - | 70 W/m² | - |
| 1777588463 | 23.33° C | 61% | 1005.6 hPa | 0 mm | - | 96 W/m² | - |
| 1777588164 | 23.33° C | 59% | 1005.7 hPa | 0 mm | - | 98 W/m² | - |
| 1777587860 | 23.33° C | 59% | 1005.4 hPa | 0 mm | - | 99 W/m² | - |
* Rain latest hour (hover to see other rain measurements)
** Current wind speed in m/s (hover to see current wind gust speed)